Regional Weather Roundup
Issued by NWS

Home | Current Version | Previous Version | Graphics & Text | Print | Product List | Glossary On
Versions: 1 2 3 4 5 6 7 8 9 10 11 12 13 14 15 16 17 18 19 20 21 22 23 24 25 26 27 28 29 30 31 32 33 34 35 36 37 38 39 40 41 42 43 44 45 46 47 48 49 50
000
ASUS43 KMKX 222111
RWRWI

WISCONSIN REGIONAL WEATHER ROUNDUP
NATIONAL WEATHER SERVICE MILWAUKEE/SULLIVAN WI
300 PM CST MON JAN 22 2018

NOTE: "FAIR" INDICATES FEW OR NO CLOUDS BELOW 12,000 FEET WITH NO
SIGNIFICANT WEATHER AND/OR OBSTRUCTIONS TO VISIBILITY.

WIZ001-002-006>008-014>016-023>028-222200-
NORTHWEST WISCONSIN

CITY           SKY/WX    TMP DP  RH WIND       PRES   REMARKS
SUPERIOR ARPT  CLOUDY    27  24  88 NE20G26   29.87F WCI  13
ASHLAND        SNOW      26  25  96 NE24G40   29.83F VSB 1/4 WCI  11
HAYWARD        LGT SNOW  27  23  85 N24G37    29.71F VSB 3/4 WCI  12
SIREN          LGT SNOW  28  24  88 NE21G31   29.73F WCI  14
CUMBERLAND     CLOUDY    28  27  93 N17G26    29.65F WCI  16
RICE LAKE      CLOUDY    29  28  94 N22       29.66F WCI  15
CHETEK         HVY SNOW  30  29  97 N9G22     29.65S VSB<1/4 WCI  21
LADYSMITH      SNOW      30  28  93 N23G31    29.61F VSB 1/4 WCI  17
EAU CLAIRE     SNOW      31  30  96 NE12      29.63R VSB 1/4 WCI  22
MENOMONIE      SNOW      32  31  98 N13G18    29.65R VSB 1/2 WCI  22
NEW RICHMOND   SNOW      29  28  94 N16G22    29.67R VSB 1/4 WCI  17
OSCEOLA        SNOW      29  29 100 N14G21    29.73R VSB 1/2 WCI  19
$$

WIZ003>005-009-010-017-018-222200-
NORTH CENTRAL WISCONSIN

CITY           SKY/WX    TMP DP  RH WIND       PRES   REMARKS
MANITOWISH WTR LGT SNOW  26  26 100 N12G21    29.69F VSB 3/4 WCI  15
ARBOR VITAE    LGT SNOW  29  27  92 NE13G20   29.64F VSB 3/4 WCI  19
WOODRUFF       LGT SNOW  29  27  92 NE13G20   29.64F VSB 3/4 WCI  19
RHINELANDER    HVY SNOW  30  29  96 NE13G24   29.60F VSB 1/4 WCI  20
EAGLE RIVER    LGT SNOW  29  28  96 NE16G25   29.65F VSB 3/4 WCI  17
LAND O LAKES   SNOW      28  26  91 N15G24    29.70F VSB 1/2 WCI  16
PHILLIPS       SNOW      27  27  99 N22G30    29.62F VSB 1/2 WCI  13
TOMAHAWK       LGT SNOW  30  28  93 NE8G16    29.60S VSB 3/4 WCI  22
MEDFORD        LGT SNOW  31  28  90 NE21G32   29.52F WCI  18
MERRILL        LGT SNOW  32  31  95 NE14G21   29.57F WCI  22
$$

WIZ029-030-035-036-043>047-222200-
CENTRAL WISCONSIN

CITY           SKY/WX    TMP DP  RH WIND       PRES   REMARKS
WAUSAU         LGT SNOW  33  30  88 NE13G22   29.51F FOG     WCI  24
MOSINEE        LGT SNOW  32  30  93 NE20G28   29.52F WCI  20
MARSHFIELD     LGT SNOW  33  32  96 E10       29.57R VSB 3/4 WCI  25
STEVENS POINT  MIX PCPN  31  31 100 E14G23    29.59R WCI  21
WAUPACA        LGT RAIN  34  32  91 NE12G18   29.55F WCI  25
WAUTOMA        LGT SNOW  33  31  92 NE21G32   29.53R FOG     WCI  21
WISC RAPIDS    NOT AVBL
CAMP DOUGLAS   FLURRIES  32  32 100 N10       29.49F WCI  24
$$

WIZ011>013-019>022-031-037>040-048>050-222200-
NORTHEAST WISCONSIN

CITY           SKY/WX    TMP DP  RH WIND       PRES   REMARKS
ANTIGO         MIX PCPN  31  30  96 NE21      29.56F WCI  18
SHAWANO        DRIZZLE   33  31  91 NE18G29   29.57F WCI  22
OCONTO         CLOUDY    31  30  94 NE10G20   29.59F WCI  23
STURGEON BAY   MIX PCPN  32  31  96 NE16G25   29.58F FOG     WCI  21
GREEN BAY      LGT SNOW  33  31  92 NE28G36   29.53F FOG     WCI  20
MANITOWOC      RAIN      36  36 100 NE9       29.51S FOG     WCI  29
APPLETON       LGT SNOW  32  32 100 NE21G28   29.49F WCI  20
CLINTONVILLE   MIX PCPN  32  30  93 E17G28    29.54F WCI  21
OSHKOSH        LGT RAIN  34  33  96 NE15      29.50R FOG     WCI  24
$$

WIZ032>034-041-042-053>061-222200-
SOUTHWEST WISCONSIN

CITY           SKY/WX    TMP DP  RH WIND       PRES   REMARKS
LA CROSSE      LGT SNOW  33  32  96 NW10      29.51S FOG     WCI  25
SPARTA         LGT SNOW  32  32 100 N6        29.52F WCI  26
VIROQUA        CLOUDY    33  33 100 NE9G18    29.47F WCI  25
BOSCOBEL       CLOUDY    38 N/A N/A NE6       29.46S WCI  33
PRAIRIE DU CHI CLOUDY    38  35  89 N5        29.47R WCI  34
PLATTEVILLE    CLOUDY    39  39 100 NE9       29.43R WCI  33
$$

WIZ056-057-062-063-064-067-068-222200-
SOUTH CENTRAL WISCONSIN

CITY           SKY/WX    TMP DP  RH WIND       PRES   REMARKS
REEDSBURG      CLOUDY    35  35 100 NE9       29.49S WCI  27
BARABOO/DELLS  CLOUDY    34  34  98 NE12      29.48R WCI  26
LONE ROCK      CLOUDY    37  36  96 NE6       29.47S WCI  32
MINERAL POINT  LGT RAIN  39  39 100 NE9       29.43R WCI  33
MADISON        CLOUDY    37  37 100 N12       29.47S WCI  29
MIDDLETON      CLOUDY    38  38  99 NE9       29.46R WCI  32
WATERTOWN      CLOUDY    38  38 100 N3        29.45R
MONROE         CLOUDY    37  37 100 N9        29.41S FOG     WCI  31
JANESVILLE     CLOUDY    45  45 100 N6        29.42F FOG
$$

WIZ051-052-058>065-066-070>072-222200-
SOUTHEAST WISCONSIN

CITY           SKY/WX    TMP DP  RH WIND       PRES   REMARKS
MILWAUKEE      DRZL/FOG  40  39  97 N5        29.44S VSB 3/4
WAUKESHA       CLOUDY    37  37 100 NE5       29.45S FOG     WCI  34
MILWAUKEE/TIMM LGT RAIN  37  36  93 N5        29.46S FOG     WCI  34
RACINE         CLOUDY    44  44 100 S3        29.45S FOG
BURLINGTON     PTSUNNY   50  48  94 SW7       29.43S
KENOSHA        PTSUNNY   52  48  86 SW14      29.44R
FOND DU LAC    RAIN      36  33  89 NE14      29.48S FOG     WCI  27
SHEBOYGAN      LGT RAIN  37  37 100 NE15      29.46F WCI  28
WEST BEND      CLOUDY    36  36 100 N3        29.46S FOG
JUNEAU         CLOUDY    36  35  98 N8        29.48R WCI  29
$$

LSZ147-162-222200-
LAKE SUPERIOR

STATION/POSITION TIME  TEMP    WIND        PRES    WAVE
                       AIR SEA DIR/SP/G            HT/PER
                 (UTC) (F)     (DEG/KT/KT) (MB)    (FT/S)
DEVILS ISLAND    2100   24      40/ 26/ 28 1013.0F
SAXON HARBOR     2050   29      50/ 28     1009.5F
$$

LMZ867-665-643>646-222200-
LAKE MICHIGAN

STATION/POSITION TIME  TEMP    WIND        PRES    WAVE
                       AIR SEA DIR/SP/G            HT/PER
                 (UTC) (F)     (DEG/KT/KT) (MB)    (FT/S)
NORTHPORT PIER   2040   31      60/ 14/ 61 1004.1F
KEWAUNEE LAKESHO 2042   35      40/ 17/ 23  999.7F
SHEBOYGAN LAKESH 2100   36      30/ 15/ 17  998.1F
PORT WASHINGTON  2030   38     350/  4/  7  998.6F
MILWAUKEE LAKESH 2050   38     350/  7/  9   N/A
KENOSHA   LAKESH 2100   39     180/  8/ 11  997.3
$$

TC  - TEMPERATURE IN CELSIUS
VSB - VISIBILITY IN STATUTE MILES
WCI - WIND CHILL INDEX
HX  - HEAT INDEX





USA.gov is the U.S. government's official web portal to all federal, state and local government web resources and services.